This is the latest recevied weather packets stored in our database for station/object K5KHP. If no packets are shown the sender has not sent any weather packets the latest 10 day(s).
| Time | Temp. | Humidity | Pressure | Rain* | Wind** | Luminosity | Snow |
|---|---|---|---|---|---|---|---|
| 1777256246 | 15.56° C | 73% | 1013.6 hPa | 0 mm | - | 6 W/m² | - |
| 1777255944 | 15.56° C | 73% | 1013.6 hPa | 0 mm | - | 8 W/m² | - |
| 1777255640 | 15.56° C | 72% | 1013.4 hPa | 0 mm | - | 11 W/m² | - |
| 1777255336 | 15.56° C | 72% | 1013.6 hPa | 0 mm | - | 15 W/m² | - |
| 1777255032 | 15.56° C | 71% | 1013.8 hPa | 0 mm | - | 19 W/m² | - |
| 1777254729 | 15.56° C | 72% | 1013.5 hPa | 0 mm | - | 23 W/m² | - |
| 1777254426 | 15.56° C | 71% | 1013.4 hPa | 0 mm | - | 29 W/m² | - |
| 1777254121 | 15.56° C | 71% | 1013.8 hPa | 0 mm | - | 33 W/m² | - |
| 1777253818 | 16.11° C | 70% | 1013.5 hPa | 0 mm | - | 38 W/m² | - |
| 1777253515 | 16.11° C | 70% | 1013.6 hPa | 0 mm | - | 43 W/m² | - |
| 1777253213 | 16.11° C | 69% | 1013.5 hPa | 0 mm | - | 52 W/m² | - |
| 1777252910 | 16.11° C | 69% | 1013.7 hPa | 0 mm | - | 58 W/m² | - |
| 1777252607 | 16.11° C | 68% | 1013.6 hPa | 0 mm | - | 57 W/m² | - |
| 1777252304 | 16.67° C | 67% | 1013.7 hPa | 0 mm | - | 65 W/m² | - |
| 1777252002 | 16.67° C | 64% | 1013.3 hPa | 0 mm | - | 75 W/m² | - |
| 1777251699 | 16.67° C | 65% | 1013.5 hPa | 0 mm | - | 88 W/m² | - |
| 1777251396 | 16.67° C | 64% | 1013.5 hPa | 0 mm | - | 81 W/m² | - |
| 1777251091 | 17.22° C | 61% | 1013.6 hPa | 0 mm | - | 87 W/m² | - |
| 1777250788 | 17.22° C | 60% | 1013.5 hPa | 0 mm | - | 84 W/m² | - |
| 1777250485 | 17.22° C | 60% | 1013.3 hPa | 0 mm | - | 94 W/m² | - |
| 1777250180 | 17.22° C | 59% | 1013.3 hPa | 0 mm | - | 88 W/m² | - |
| 1777249877 | 17.78° C | 57% | 1013.3 hPa | 0 mm | - | 113 W/m² | - |
| 1777249573 | 17.78° C | 58% | 1013.5 hPa | 0 mm | - | 142 W/m² | - |
| 1777249270 | 18.33° C | 56% | 1013.4 hPa | 0 mm | - | 231 W/m² | - |
| 1777248967 | 17.78° C | 56% | 1013 hPa | 0 mm | - | 269 W/m² | - |
* Rain latest hour (hover to see other rain measurements)
** Current wind speed in m/s (hover to see current wind gust speed)